Regional Weather Roundup
Issued by NWS

Home | Current Version | Previous Version | Text Only | Print | Product List | Glossary On
Versions: 1 2 3 4 5 6 7 8 9 10 11 12 13 14 15 16 17 18 19 20 21 22 23 24 25 26 27 28 29 30 31 32 33 34 35 36 37 38 39 40 41 42 43 44 45 46 47 48 49 50
000
ASUS43 KLSX 050859
RWRMO

WEATHER SUMMARY FOR MISSOURI
NATIONAL WEATHER SERVICE SPRINGFIELD MO
400 AM CDT SUN JUL 05 2015

NOTE: "FAIR" INDICATES FEW OR NO CLOUDS BELOW 12,000 FEET WITH NO
       SIGNIFICANT WEATHER AND/OR OBSTRUCTIONS TO VISIBILITY.
       CURRENT SKY AND/OR WEATHER CONDITIONS ARE NOT AVAILABLE FOR
       CHILLICOTHE AND FARMINGTON.

MOZ001>031-035>038-043-044-053-054-051000-
...NORTHERN AND WESTERN MISSOURI...

CITY           SKY/WX    TMP DP  RH WIND       PRES   REMARKS
KANSAS CTY INT CLEAR     68  64  87 SE9       29.97F
KANSAS C DTWN  CLEAR     72  65  78 SE6       29.96F
LEE`S SUMMIT   CLEAR     69  64  84 SE6       29.99F
ST JOSEPH      CLEAR     69  64  84 S6        29.97F HAZE
CHILLICOTHE      N/A     65  63  93 CALM      30.01F
KIRKSVILLE     CLEAR     64  61  90 S3        30.03F FOG

$$
MOZ066>068-077>081-088>096-101>105-051000-
...SOUTHWEST MISSOURI...

CITY           SKY/WX    TMP DP  RH WIND       PRES   REMARKS
SPRINGFIELD    CLEAR     71  68  90 SE9       30.02F
JOPLIN         CLEAR     72  69  90 SE8       29.99F

$$
MOZ032>034-039>042-045>050-055>058-069>072-051000-
...CENTRAL MISSOURI...

CITY           SKY/WX    TMP DP  RH WIND       PRES   REMARKS
COLUMBIA       CLEAR     67  65  93 SE7       30.02F
JEFFERSON CITY CLEAR     68  65  90 E3        30.02S
ROLLA          CLEAR     67  67 100 S6        30.03S FOG
SEDALIA        PTCLDY    69  65  86 SE6       30.02F FOG
OSAGE BEACH    CLEAR     68  64  88 SE3       30.02F

$$
MOZ051-052-059>065-051000-
...EAST CENTRAL MISSOURI...

CITY           SKY/WX    TMP DP  RH WIND       PRES   REMARKS
ST LOUIS INTL  CLEAR     68  61  78 E3        30.05S HAZE
SPIRIT OF STL  CLEAR     64  63  96 CALM      30.03F FOG
ST CHARLES     CLEAR     67  66  97 E3        30.03F FOG

$$
MOZ072>076-082>087-097>100-106>115-051000-
...SOUTH CENTRAL AND SOUTHEAST MISSOURI...

CITY           SKY/WX    TMP DP  RH WIND       PRES   REMARKS
CAPE GIRARDEAU MOCLDY    68  68 100 CALM      30.03F
FARMINGTON       N/A     64  63  94 CALM      30.09S VSB 3/4
POPLAR BLUFF   CLEAR     70  68  93 NE3       30.02S FOG
WEST PLAINS    CLOUDY    70  68  93 CALM      30.06S FOG

$$


USA.gov is the U.S. government's official web portal to all federal, state and local government web resources and services.